Time,TemperatureF,DewpointF,PressureIn,WindDirection,WindDirectionDegrees,WindSpeedMPH,WindSpeedGustMPH,Humidity,HourlyPrecipIn,Conditions,Clouds,dailyrainin,SoftwareType,DateUTC
2013-03-06 00:00:00,60.6,58.3,29.60,SSW,196,2.0,15.0,92,0.12,,,0.12,VWS V14.00,2013-03-06 05:00:00,
2013-03-06 00:02:00,60.7,58.4,29.60,NW,304,3.0,5.0,92,0.12,,,0.00,VWS V14.00,2013-03-06 05:02:00,
2013-03-06 00:07:00,60.9,58.6,29.59,SW,223,4.0,12.0,92,0.12,,,0.00,VWS V14.00,2013-03-06 05:07:00,
2013-03-06 00:12:00,61.4,58.8,29.59,WSW,256,6.0,7.0,91,0.12,,,0.01,VWS V14.00,2013-03-06 05:12:00,
2013-03-06 00:17:00,61.6,59.0,29.59,West,261,8.0,11.0,91,0.12,,,0.01,VWS V14.00,2013-03-06 05:17:00,
2013-03-06 00:22:00,61.6,58.6,29.58,East,84,6.0,11.0,90,0.09,,,0.01,VWS V14.00,2013-03-06 05:22:00,
2013-03-06 00:27:00,61.6,58.6,29.58,West,267,9.0,15.0,90,0.09,,,0.01,VWS V14.00,2013-03-06 05:27:00,
2013-03-06 00:33:00,61.8,58.5,29.58,WSW,255,3.0,11.0,89,0.04,,,0.01,VWS V14.00,2013-03-06 05:33:00,
2013-03-06 00:38:00,61.9,58.6,29.58,WSW,257,4.0,18.0,89,0.04,,,0.01,VWS V14.00,2013-03-06 05:38:00,
2013-03-06 00:43:00,61.7,58.4,29.57,NW,316,9.0,14.0,89,0.01,,,0.01,VWS V14.00,2013-03-06 05:43:00,
2013-03-06 00:48:00,61.6,58.3,29.58,NW,308,4.0,14.0,89,0.01,,,0.01,VWS V14.00,2013-03-06 05:48:00,
2013-03-06 00:53:00,61.5,58.2,29.58,WNW,292,3.0,14.0,89,0.01,,,0.01,VWS V14.00,2013-03-06 05:53:00,
2013-03-06 00:58:00,61.4,58.1,29.57,WSW,238,4.0,14.0,89,0.01,,,0.01,VWS V14.00,2013-03-06 05:58:00,
2013-03-06 01:03:00,61.2,57.9,29.57,WNW,283,2.0,7.0,89,0.01,,,0.01,VWS V14.00,2013-03-06 06:03:00,
2013-03-06 01:08:00,61.1,57.5,29.56,NNW,332,6.0,13.0,88,0.01,,,0.01,VWS V14.00,2013-03-06 06:08:00,
2013-03-06 01:14:00,61.1,57.5,29.56,WNW,293,5.0,10.0,88,0.00,,,0.01,VWS V14.00,2013-03-06 06:14:00,
2013-03-06 01:19:00,61.0,57.4,29.56,West,262,5.0,10.0,88,0.00,,,0.01,VWS V14.00,2013-03-06 06:19:00,
2013-03-06 01:24:00,60.9,57.3,29.56,SSW,206,3.0,15.0,88,0.00,,,0.01,VWS V14.00,2013-03-06 06:24:00,
2013-03-06 01:29:00,60.9,57.3,29.56,NW,319,4.0,15.0,88,0.00,,,0.01,VWS V14.00,2013-03-06 06:29:00,
2013-03-06 01:34:00,60.7,57.1,29.56,SW,219,5.0,6.0,88,0.00,,,0.01,VWS V14.00,2013-03-06 06:34:00,
2013-03-06 01:39:00,60.5,56.9,29.56,West,280,3.0,6.0,88,0.00,,,0.01,VWS V14.00,2013-03-06 06:39:00,
2013-03-06 01:44:00,60.4,57.2,29.55,SW,218,10.0,10.0,89,0.00,,,0.01,VWS V14.00,2013-03-06 06:44:00,
2013-03-06 01:49:00,60.2,57.0,29.55,WNW,282,7.0,10.0,89,0.00,,,0.01,VWS V14.00,2013-03-06 06:49:00,
2013-03-06 01:54:00,60.1,56.8,29.55,WSW,257,3.0,9.0,89,0.00,,,0.01,VWS V14.00,2013-03-06 06:54:00,
2013-03-06 02:00:00,59.9,56.7,29.55,WNW,292,6.0,10.0,89,0.00,,,0.01,VWS V14.00,2013-03-06 07:00:00,
2013-03-06 02:05:00,59.8,56.6,29.55,West,268,5.0,6.0,89,0.00,,,0.01,VWS V14.00,2013-03-06 07:05:00,
2013-03-06 02:10:00,59.6,56.4,29.55,WSW,255,2.0,6.0,89,0.00,,,0.01,VWS V14.00,2013-03-06 07:10:00,
2013-03-06 02:15:00,59.4,56.2,29.54,WNW,301,1.0,9.0,89,0.00,,,0.01,VWS V14.00,2013-03-06 07:15:00,
2013-03-06 02:20:00,59.2,56.3,29.54,WSW,248,5.0,10.0,90,0.00,,,0.01,VWS V14.00,2013-03-06 07:20:00,
2013-03-06 02:26:00,59.0,56.1,29.54,West,262,1.0,7.0,90,0.00,,,0.01,VWS V14.00,2013-03-06 07:26:00,
2013-03-06 02:31:00,58.8,55.9,29.53,WNW,300,2.0,12.0,90,0.00,,,0.01,VWS V14.00,2013-03-06 07:31:00,
2013-03-06 02:36:00,58.5,55.6,29.53,NW,325,3.0,6.0,90,0.00,,,0.01,VWS V14.00,2013-03-06 07:36:00,
2013-03-06 02:41:00,58.2,55.6,29.53,WNW,300,3.0,3.0,91,0.00,,,0.01,VWS V14.00,2013-03-06 07:41:00,
2013-03-06 02:46:00,58.0,55.4,29.53,West,269,5.0,9.0,91,0.00,,,0.01,VWS V14.00,2013-03-06 07:46:00,
2013-03-06 02:51:00,57.9,55.3,29.53,WNW,296,5.0,5.0,91,0.00,,,0.01,VWS V14.00,2013-03-06 07:51:00,
2013-03-06 02:57:00,57.7,55.1,29.53,NW,304,2.0,7.0,91,0.00,,,0.01,VWS V14.00,2013-03-06 07:57:00,
2013-03-06 03:02:00,57.6,55.3,29.53,West,278,5.0,10.0,92,0.00,,,0.01,VWS V14.00,2013-03-06 08:02:00,
2013-03-06 03:07:00,57.4,55.1,29.52,WNW,291,5.0,11.0,92,0.00,,,0.01,VWS V14.00,2013-03-06 08:07:00,
2013-03-06 03:12:00,57.4,54.8,29.52,WSW,246,2.0,8.0,91,0.00,,,0.01,VWS V14.00,2013-03-06 08:12:00,
2013-03-06 03:17:00,57.3,54.7,29.52,NNW,329,4.0,12.0,91,0.00,,,0.01,VWS V14.00,2013-03-06 08:17:00,
2013-03-06 03:22:00,57.3,54.7,29.52,WNW,299,5.0,12.0,91,0.00,,,0.01,VWS V14.00,2013-03-06 08:22:00,
2013-03-06 03:27:00,57.3,54.4,29.52,WNW,297,5.0,12.0,90,0.00,,,0.01,VWS V14.00,2013-03-06 08:27:00,
2013-03-06 03:32:00,57.1,53.9,29.52,NW,322,5.0,11.0,89,0.00,,,0.01,VWS V14.00,2013-03-06 08:32:00,
2013-03-06 03:38:00,57.1,53.6,29.53,West,279,2.0,11.0,88,0.00,,,0.01,VWS V14.00,2013-03-06 08:38:00,
2013-03-06 03:43:00,57.1,53.0,29.52,WNW,294,10.0,14.0,86,0.00,,,0.01,VWS V14.00,2013-03-06 08:43:00,
2013-03-06 03:48:00,56.8,49.7,29.53,NW,309,5.0,21.0,77,0.00,,,0.01,VWS V14.00,2013-03-06 08:48:00,
2013-03-06 03:53:00,56.3,47.0,29.53,WNW,284,8.0,20.0,71,0.00,,,0.01,VWS V14.00,2013-03-06 08:53:00,
2013-03-06 03:58:00,55.7,45.7,29.54,NW,304,6.0,20.0,69,0.00,,,0.01,VWS V14.00,2013-03-06 08:58:00,
2013-03-06 04:03:00,55.0,45.8,29.54,NW,306,14.0,19.0,71,0.00,,,0.01,VWS V14.00,2013-03-06 09:03:00,
2013-03-06 04:09:00,54.3,45.5,29.54,WNW,293,2.0,20.0,72,0.00,,,0.01,VWS V14.00,2013-03-06 09:09:00,
2013-03-06 04:14:00,53.8,45.4,29.54,West,271,9.0,16.0,73,0.00,,,0.01,VWS V14.00,2013-03-06 09:14:00,
2013-03-06 04:19:00,53.4,45.0,29.54,West,272,5.0,18.0,73,0.00,,,0.01,VWS V14.00,2013-03-06 09:19:00,
2013-03-06 04:24:00,53.0,44.6,29.55,WNW,300,7.0,16.0,73,0.00,,,0.01,VWS V14.00,2013-03-06 09:24:00,
2013-03-06 04:29:00,52.6,44.6,29.55,WNW,302,10.0,18.0,74,0.00,,,0.01,VWS V14.00,2013-03-06 09:29:00,
2013-03-06 04:35:00,52.3,44.3,29.55,WNW,302,14.0,22.0,74,0.00,,,0.01,VWS V14.00,2013-03-06 09:35:00,
2013-03-06 04:40:00,52.0,44.0,29.56,NW,308,1.0,22.0,74,0.00,,,0.01,VWS V14.00,2013-03-06 09:40:00,
2013-03-06 04:45:00,51.6,43.6,29.56,WNW,282,11.0,18.0,74,0.00,,,0.01,VWS V14.00,2013-03-06 09:45:00,
2013-03-06 04:50:00,51.4,43.4,29.56,West,279,8.0,18.0,74,0.00,,,0.01,VWS V14.00,2013-03-06 09:50:00,
2013-03-06 04:55:00,51.1,42.8,29.56,West,265,12.0,18.0,73,0.00,,,0.01,VWS V14.00,2013-03-06 09:55:00,
2013-03-06 05:00:00,50.8,42.8,29.56,West,278,6.0,18.0,74,0.00,,,0.01,VWS V14.00,2013-03-06 10:00:00,
2013-03-06 05:06:00,50.6,41.9,29.57,West,269,7.0,15.0,72,0.00,,,0.01,VWS V14.00,2013-03-06 10:06:00,
2013-03-06 05:11:00,50.4,41.4,29.57,WNW,294,10.0,17.0,71,0.00,,,0.01,VWS V14.00,2013-03-06 10:11:00,
2013-03-06 05:16:00,50.1,41.1,29.57,WNW,300,15.0,22.0,71,0.00,,,0.01,VWS V14.00,2013-03-06 10:16:00,
2013-03-06 05:21:00,49.8,40.8,29.57,WNW,301,5.0,5.0,71,0.00,,,0.01,VWS V14.00,2013-03-06 10:21:00,
2013-03-06 05:26:00,49.4,40.4,29.58,West,270,11.0,17.0,71,0.00,,,0.01,VWS V14.00,2013-03-06 10:26:00,
2013-03-06 05:31:00,49.2,39.8,29.58,WNW,282,5.0,10.0,70,0.00,,,0.01,VWS V14.00,2013-03-06 10:31:00,
2013-03-06 05:37:00,48.9,39.2,29.58,WNW,296,14.0,16.0,69,0.00,,,0.01,VWS V14.00,2013-03-06 10:37:00,
2013-03-06 05:42:00,48.7,39.0,29.58,West,273,6.0,14.0,69,0.00,,,0.01,VWS V14.00,2013-03-06 10:42:00,
2013-03-06 05:47:00,48.4,38.7,29.59,NW,313,10.0,20.0,69,0.00,,,0.01,VWS V14.00,2013-03-06 10:47:00,
2013-03-06 05:52:00,48.2,38.2,29.59,NW,308,17.0,17.0,68,0.00,,,0.01,VWS V14.00,2013-03-06 10:52:00,
2013-03-06 05:57:00,47.8,37.8,29.59,WNW,287,5.0,20.0,68,0.00,,,0.01,VWS V14.00,2013-03-06 10:57:00,
2013-03-06 06:02:00,47.4,37.0,29.60,NW,309,7.0,13.0,67,0.00,,,0.01,VWS V14.00,2013-03-06 11:02:00,
2013-03-06 06:07:00,47.2,36.8,29.60,WNW,285,7.0,13.0,67,0.00,,,0.01,VWS V14.00,2013-03-06 11:07:00,
2013-03-06 06:12:00,46.8,36.0,29.60,WNW,296,6.0,15.0,66,0.00,,,0.01,VWS V14.00,2013-03-06 11:12:00,
2013-03-06 06:17:00,46.5,36.2,29.60,WNW,303,7.0,17.0,67,0.00,,,0.01,VWS V14.00,2013-03-06 11:17:00,
2013-03-06 06:22:00,46.3,36.0,29.60,WNW,294,6.0,13.0,67,0.00,,,0.01,VWS V14.00,2013-03-06 11:22:00,
2013-03-06 06:27:00,46.1,35.4,29.60,WNW,288,6.0,22.0,66,0.00,,,0.01,VWS V14.00,2013-03-06 11:27:00,
2013-03-06 06:32:00,45.9,36.0,29.60,West,272,10.0,10.0,68,0.00,,,0.01,VWS V14.00,2013-03-06 11:32:00,
2013-03-06 06:38:00,45.7,35.4,29.60,WNW,284,10.0,21.0,67,0.00,,,0.01,VWS V14.00,2013-03-06 11:38:00,
2013-03-06 06:43:00,45.5,35.2,29.61,West,265,5.0,10.0,67,0.00,,,0.01,VWS V14.00,2013-03-06 11:43:00,
2013-03-06 06:48:00,45.3,34.6,29.61,WNW,298,6.0,18.0,66,0.00,,,0.01,VWS V14.00,2013-03-06 11:48:00,
2013-03-06 06:53:00,45.2,34.5,29.61,WNW,291,9.0,15.0,66,0.00,,,0.01,VWS V14.00,2013-03-06 11:53:00,
2013-03-06 06:58:00,45.1,34.4,29.61,WNW,292,4.0,16.0,66,0.00,,,0.01,VWS V14.00,2013-03-06 11:58:00,
2013-03-06 07:03:00,45.1,34.4,29.61,NW,313,4.0,15.0,66,0.00,,,0.01,VWS V14.00,2013-03-06 12:03:00,
2013-03-06 07:08:00,45.1,34.0,29.61,WNW,297,5.0,20.0,65,0.00,,,0.01,VWS V14.00,2013-03-06 12:08:00,
2013-03-06 07:13:00,45.2,34.2,29.61,NNW,344,2.0,16.0,65,0.00,,,0.01,VWS V14.00,2013-03-06 12:13:00,
2013-03-06 07:30:00,45.4,34.0,29.62,WNW,292,9.0,20.0,64,0.00,,,0.01,VWS V14.00,2013-03-06 12:30:00,
2013-03-06 07:44:00,45.2,33.4,29.63,WNW,302,11.0,13.0,63,0.00,,,0.01,VWS V14.00,2013-03-06 12:44:00,
2013-03-06 07:49:00,45.3,33.5,29.63,WNW,298,6.0,20.0,63,0.00,,,0.01,VWS V14.00,2013-03-06 12:49:00,
2013-03-06 07:55:00,45.3,33.9,29.63,WNW,293,12.0,17.0,64,0.00,,,0.01,VWS V14.00,2013-03-06 12:55:00,
2013-03-06 07:59:00,45.6,33.3,29.63,WNW,286,9.0,20.0,62,0.00,,,0.01,VWS V14.00,2013-03-06 12:59:00,
2013-03-06 08:05:00,45.8,33.1,29.64,WNW,288,5.0,21.0,61,0.00,,,0.01,VWS V14.00,2013-03-06 13:05:00,
2013-03-06 08:10:00,45.9,33.6,29.64,NW,313,4.0,21.0,62,0.00,,,0.01,VWS V14.00,2013-03-06 13:10:00,
2013-03-06 08:15:00,46.2,33.9,29.64,NW,321,5.0,23.0,62,0.00,,,0.01,VWS V14.00,2013-03-06 13:15:00,
2013-03-06 08:20:00,46.4,33.7,29.64,West,270,10.0,23.0,61,0.00,,,0.01,VWS V14.00,2013-03-06 13:20:00,
2013-03-06 08:25:00,46.3,33.6,29.65,West,279,10.0,18.0,61,0.00,,,0.01,VWS V14.00,2013-03-06 13:25:00,
2013-03-06 08:30:00,46.5,33.8,29.65,NW,307,15.0,20.0,61,0.00,,,0.01,VWS V14.00,2013-03-06 13:30:00,
2013-03-06 08:35:00,46.8,34.1,29.65,WNW,300,5.0,13.0,61,0.00,,,0.01,VWS V14.00,2013-03-06 13:35:00,
2013-03-06 08:40:00,46.9,33.8,29.66,WNW,298,9.0,16.0,60,0.00,,,0.01,VWS V14.00,2013-03-06 13:40:00,
2013-03-06 08:46:00,46.9,32.9,29.65,NW,305,5.0,19.0,58,0.00,,,0.01,VWS V14.00,2013-03-06 13:46:00,
2013-03-06 08:51:00,47.1,33.9,29.66,WNW,292,6.0,19.0,60,0.00,,,0.01,VWS V14.00,2013-03-06 13:51:00,
2013-03-06 08:56:00,47.3,33.3,29.65,NW,309,4.0,16.0,58,0.00,,,0.01,VWS V14.00,2013-03-06 13:56:00,
2013-03-06 09:01:00,47.3,32.8,29.65,WNW,299,14.0,18.0,57,0.00,,,0.01,VWS V14.00,2013-03-06 14:01:00,
2013-03-06 09:06:00,47.6,33.6,29.65,West,275,17.0,18.0,58,0.00,,,0.01,VWS V14.00,2013-03-06 14:06:00,
2013-03-06 09:11:00,47.8,34.6,29.65,NNW,332,4.0,4.0,60,0.00,,,0.01,VWS V14.00,2013-03-06 14:11:00,
2013-03-06 09:16:00,47.5,33.0,29.65,WNW,292,6.0,17.0,57,0.00,,,0.01,VWS V14.00,2013-03-06 14:16:00,
2013-03-06 09:21:00,47.7,33.7,29.65,NNW,338,2.0,6.0,58,0.00,,,0.01,VWS V14.00,2013-03-06 14:21:00,
2013-03-06 09:26:00,48.0,33.9,29.65,NNW,334,4.0,15.0,58,0.00,,,0.01,VWS V14.00,2013-03-06 14:26:00,
2013-03-06 09:32:00,47.9,33.4,29.66,North,355,5.0,14.0,57,0.00,,,0.01,VWS V14.00,2013-03-06 14:32:00,
2013-03-06 09:37:00,47.9,32.1,29.65,NW,313,4.0,15.0,54,0.00,,,0.01,VWS V14.00,2013-03-06 14:37:00,
2013-03-06 09:42:00,47.8,32.0,29.66,WNW,303,10.0,19.0,54,0.00,,,0.01,VWS V14.00,2013-03-06 14:42:00,
2013-03-06 09:47:00,47.5,31.7,29.66,NW,317,10.0,19.0,54,0.00,,,0.01,VWS V14.00,2013-03-06 14:47:00,
2013-03-06 09:52:00,47.3,32.0,29.66,WNW,287,9.0,12.0,55,0.00,,,0.01,VWS V14.00,2013-03-06 14:52:00,
2013-03-06 09:58:00,47.6,32.2,29.66,NW,324,3.0,13.0,55,0.00,,,0.01,VWS V14.00,2013-03-06 14:58:00,
2013-03-06 10:03:00,47.9,32.5,29.67,West,281,7.0,8.0,55,0.00,,,0.01,VWS V14.00,2013-03-06 15:03:00,
2013-03-06 10:08:00,47.7,31.9,29.67,NNW,333,6.0,17.0,54,0.00,,,0.01,VWS V14.00,2013-03-06 15:08:00,
2013-03-06 10:13:00,48.1,30.4,29.67,WNW,303,9.0,10.0,50,0.00,,,0.01,VWS V14.00,2013-03-06 15:13:00,
2013-03-06 10:18:00,48.3,29.0,29.67,NNW,338,4.0,27.0,47,0.00,,,0.01,VWS V14.00,2013-03-06 15:18:00,
2013-03-06 10:23:00,48.7,28.9,29.66,NNW,327,8.0,17.0,46,0.00,,,0.01,VWS V14.00,2013-03-06 15:23:00,
2013-03-06 10:28:00,48.5,29.2,29.66,NNW,336,3.0,17.0,47,0.00,,,0.01,VWS V14.00,2013-03-06 15:28:00,
2013-03-06 10:34:00,49.0,29.7,29.67,NNE,14,7.0,24.0,47,0.00,,,0.01,VWS V14.00,2013-03-06 15:34:00,
2013-03-06 10:39:00,49.3,29.4,29.66,WNW,303,14.0,24.0,46,0.00,,,0.01,VWS V14.00,2013-03-06 15:39:00,
2013-03-06 10:44:00,49.2,28.8,29.66,WNW,298,6.0,12.0,45,0.00,,,0.01,VWS V14.00,2013-03-06 15:44:00,
2013-03-06 10:49:00,49.0,31.7,29.66,North,349,3.0,17.0,51,0.00,,,0.01,VWS V14.00,2013-03-06 15:49:00,
2013-03-06 10:54:00,49.3,30.5,29.66,WNW,298,12.0,16.0,48,0.00,,,0.01,VWS V14.00,2013-03-06 15:54:00,
2013-03-06 10:59:00,49.0,31.7,29.67,West,280,10.0,24.0,51,0.00,,,0.01,VWS V14.00,2013-03-06 15:59:00,
2013-03-06 11:04:00,49.5,31.6,29.66,WNW,302,6.0,11.0,50,0.00,,,0.01,VWS V14.00,2013-03-06 16:04:00,
2013-03-06 11:10:00,49.8,30.9,29.67,NW,309,6.0,14.0,48,0.00,,,0.01,VWS V14.00,2013-03-06 16:10:00,
2013-03-06 11:15:00,49.5,30.1,29.67,WNW,292,10.0,18.0,47,0.00,,,0.01,VWS V14.00,2013-03-06 16:15:00,
2013-03-06 11:20:00,48.9,30.1,29.67,WNW,298,10.0,18.0,48,0.00,,,0.01,VWS V14.00,2013-03-06 16:20:00,
2013-03-06 11:25:00,48.6,30.3,29.67,NW,309,9.0,21.0,49,0.00,,,0.01,VWS V14.00,2013-03-06 16:25:00,
2013-03-06 11:30:00,49.4,30.0,29.66,WNW,285,3.0,23.0,47,0.00,,,0.01,VWS V14.00,2013-03-06 16:30:00,
2013-03-06 11:36:00,50.3,30.9,29.67,NNW,348,3.0,13.0,47,0.00,,,0.01,VWS V14.00,2013-03-06 16:36:00,
2013-03-06 11:41:00,49.9,29.4,29.67,WNW,291,5.0,13.0,45,0.00,,,0.01,VWS V14.00,2013-03-06 16:41:00,
2013-03-06 11:46:00,50.1,30.1,29.67,NW,323,17.0,26.0,46,0.00,,,0.01,VWS V14.00,2013-03-06 16:46:00,
2013-03-06 11:51:00,49.7,29.8,29.67,WNW,288,7.0,30.0,46,0.00,,,0.01,VWS V14.00,2013-03-06 16:51:00,
2013-03-06 11:56:00,50.3,31.4,29.67,NNE,19,2.0,15.0,48,0.00,,,0.01,VWS V14.00,2013-03-06 16:56:00,
2013-03-06 12:01:00,50.7,29.6,29.67,NW,314,5.0,6.0,44,0.00,,,0.01,VWS V14.00,2013-03-06 17:01:00,
2013-03-06 12:06:00,50.7,30.7,29.67,WSW,257,9.0,17.0,46,0.00,,,0.01,VWS V14.00,2013-03-06 17:06:00,
2013-03-06 12:12:00,50.3,29.2,29.67,NNW,333,1.0,6.0,44,0.00,,,0.01,VWS V14.00,2013-03-06 17:12:00,
2013-03-06 12:17:00,49.7,28.7,29.67,NW,313,7.0,12.0,44,0.00,,,0.01,VWS V14.00,2013-03-06 17:17:00,
2013-03-06 12:22:00,49.5,29.1,29.67,NNW,348,6.0,12.0,45,0.00,,,0.01,VWS V14.00,2013-03-06 17:22:00,
2013-03-06 12:27:00,50.4,29.3,29.67,NW,323,3.0,23.0,44,0.00,,,0.01,VWS V14.00,2013-03-06 17:27:00,
2013-03-06 12:32:00,50.5,30.0,29.67,West,260,13.0,17.0,45,0.00,,,0.01,VWS V14.00,2013-03-06 17:32:00,
2013-03-06 12:37:00,51.0,29.9,29.66,WNW,299,5.0,18.0,44,0.00,,,0.01,VWS V14.00,2013-03-06 17:37:00,
2013-03-06 12:42:00,50.9,30.9,29.67,WNW,294,4.0,14.0,46,0.00,,,0.01,VWS V14.00,2013-03-06 17:42:00,
2013-03-06 12:48:00,51.0,29.9,29.66,WNW,303,4.0,15.0,44,0.00,,,0.01,VWS V14.00,2013-03-06 17:48:00,
2013-03-06 12:53:00,51.0,29.3,29.66,WNW,300,11.0,21.0,43,0.00,,,0.01,VWS V14.00,2013-03-06 17:53:00,
2013-03-06 12:58:00,51.4,29.1,29.66,NNW,331,6.0,21.0,42,0.00,,,0.01,VWS V14.00,2013-03-06 17:58:00,
2013-03-06 13:03:00,51.4,29.1,29.66,NW,305,13.0,22.0,42,0.00,,,0.01,VWS V14.00,2013-03-06 18:03:00,
2013-03-06 13:08:00,51.4,30.2,29.66,NNW,346,10.0,22.0,44,0.00,,,0.01,VWS V14.00,2013-03-06 18:08:00,
2013-03-06 13:13:00,51.6,29.9,29.66,NW,305,5.0,9.0,43,0.00,,,0.01,VWS V14.00,2013-03-06 18:13:00,
2013-03-06 13:18:00,51.5,29.8,29.65,West,280,6.0,13.0,43,0.00,,,0.01,VWS V14.00,2013-03-06 18:18:00,
2013-03-06 13:24:00,51.3,29.6,29.66,WNW,300,11.0,15.0,43,0.00,,,0.01,VWS V14.00,2013-03-06 18:24:00,
2013-03-06 21:29:00,51.3,29.6,29.66,WNW,301,15.0,29.0,43,0.00,,,0.01,VWS V14.00,2013-03-07 02:29:00,
2013-03-06 21:34:00,48.9,33.9,29.91,North,350,3.0,6.0,56,0.00,,,0.01,VWS V14.00,2013-03-07 02:34:00,
2013-03-06 21:39:00,48.9,33.9,29.91,North,355,2.0,6.0,56,0.00,,,0.01,VWS V14.00,2013-03-07 02:39:00,
2013-03-06 21:45:00,48.7,33.7,29.91,NNE,19,2.0,5.0,56,0.00,,,0.01,VWS V14.00,2013-03-07 02:45:00,
2013-03-06 21:50:00,48.7,33.3,29.91,NNW,335,1.0,5.0,55,0.00,,,0.01,VWS V14.00,2013-03-07 02:50:00,
2013-03-06 21:55:00,48.5,34.0,29.92,NNW,342,3.0,6.0,57,0.00,,,0.01,VWS V14.00,2013-03-07 02:55:00,
2013-03-06 22:00:00,48.3,33.8,29.92,NNW,340,2.0,6.0,57,0.00,,,0.01,VWS V14.00,2013-03-07 03:00:00,
2013-03-06 22:05:00,48.1,33.6,29.92,NNW,341,4.0,5.0,57,0.00,,,0.01,VWS V14.00,2013-03-07 03:05:00,
2013-03-06 22:11:00,47.9,33.8,29.92,NNW,346,1.0,5.0,58,0.00,,,0.01,VWS V14.00,2013-03-07 03:11:00,
2013-03-06 22:16:00,47.7,33.7,29.92,NW,326,2.0,4.0,58,0.00,,,0.01,VWS V14.00,2013-03-07 03:16:00,
2013-03-06 22:21:00,47.6,34.0,29.92,NNW,340,5.0,6.0,59,0.00,,,0.01,VWS V14.00,2013-03-07 03:21:00,
2013-03-06 22:26:00,47.5,35.1,29.92,NNE,14,2.0,6.0,62,0.00,,,0.01,VWS V14.00,2013-03-07 03:26:00,
2013-03-06 22:31:00,47.3,33.7,29.93,North,355,1.0,2.0,59,0.00,,,0.01,VWS V14.00,2013-03-07 03:31:00,
2013-03-06 22:36:00,47.2,33.6,29.93,North,349,1.0,5.0,59,0.00,,,0.01,VWS V14.00,2013-03-07 03:36:00,
2013-03-06 22:41:00,47.1,33.9,29.93,North,351,3.0,3.0,60,0.00,,,0.01,VWS V14.00,2013-03-07 03:41:00,
2013-03-06 22:47:00,46.9,33.8,29.93,North,355,1.0,4.0,60,0.00,,,0.01,VWS V14.00,2013-03-07 03:47:00,
2013-03-06 22:52:00,46.7,33.6,29.93,NNW,345,1.0,2.0,60,0.00,,,0.01,VWS V14.00,2013-03-07 03:52:00,
2013-03-06 22:57:00,46.5,33.8,29.93,NNW,345,2.0,3.0,61,0.00,,,0.01,VWS V14.00,2013-03-07 03:57:00,
2013-03-06 23:02:00,46.2,33.5,29.94,NW,321,1.0,2.0,61,0.00,,,0.01,VWS V14.00,2013-03-07 04:02:00,
2013-03-06 23:07:00,45.9,33.6,29.94,NNW,332,2.0,3.0,62,0.00,,,0.01,VWS V14.00,2013-03-07 04:07:00,
2013-03-06 23:12:00,45.6,33.8,29.94,NNW,343,2.0,3.0,63,0.00,,,0.01,VWS V14.00,2013-03-07 04:12:00,
2013-03-06 23:17:00,45.4,33.6,29.94,NNW,342,1.0,3.0,63,0.00,,,0.01,VWS V14.00,2013-03-07 04:17:00,
2013-03-06 23:22:00,45.3,33.9,29.94,North,5,4.0,4.0,64,0.00,,,0.01,VWS V14.00,2013-03-07 04:22:00,
2013-03-06 23:27:00,45.2,33.8,29.94,NNE,16,3.0,4.0,64,0.00,,,0.01,VWS V14.00,2013-03-07 04:27:00,
2013-03-06 23:33:00,45.2,33.8,29.94,NNE,33,4.0,5.0,64,0.00,,,0.01,VWS V14.00,2013-03-07 04:33:00,
2013-03-06 23:38:00,45.2,33.8,29.94,North,355,4.0,6.0,64,0.00,,,0.01,VWS V14.00,2013-03-07 04:38:00,
2013-03-06 23:43:00,45.1,33.7,29.94,North,355,3.0,3.0,64,0.00,,,0.01,VWS V14.00,2013-03-07 04:43:00,
2013-03-06 23:48:00,44.9,33.5,29.94,North,5,2.0,5.0,64,0.00,,,0.01,VWS V14.00,2013-03-07 04:48:00,
2013-03-06 23:53:00,44.9,33.9,29.94,NNW,348,3.0,6.0,65,0.00,,,0.01,VWS V14.00,2013-03-07 04:53:00,
2013-03-06 23:58:00,44.8,33.8,29.94,NNE,27,3.0,6.0,65,0.00,,,0.01,VWS V14.00,2013-03-07 04:58:00,